Flag for Sweden Weather past 2 weeks in Stockholm, Sweden

Now
37 °F

Low clouds.


Feels Like: 33 °F
Forecast: 38 / 44 °F
Wind: 6 mph from West

Location: Stockholm Bromma Airport

Current Time: Mar 28, 2015 at 3:12:33 AM

Latest Report: Mar 28, 2015 at 2:50 AM


Visibility: N/A

Pressure: 29.86 "Hg

Humidity: 93%

Dew point: 36 °F

Location of StockholmLocation

Historic Weather in Stockholm — Graph

°F

Stockholm temperature yesterday

Maximum temperature yesterday: 45 °F (at 1:50 PM)
Minimum temperature yesterday: 37 °F (at 11:50 PM)
Average temperature yesterday: 41 °F

Past Weeks' High & Low Weather Summary

 TemperatureHumidityPressure
High55 °F (Mar 18, 1:20 PM)100% (Mar 13, 1:50 AM)30.89 "Hg (Mar 13, 1:50 AM)
Low18 °F (Mar 22, 2:20 AM)26% (Mar 18, 2:20 PM)29.45 "Hg (Mar 24, 12:20 AM)
Average37 °F75%30.29 "Hg
* Reported Mar 13 1:20 AM — Mar 28 1:50 AM, Stockholm, Weather by CustomWeather, © 2015

Note: Actual official high and low records may vary slightly from our data, if they occured in-between our weather recording intervals... More about our weather records

Advertising

Stockholm weather history for previous 24 hours

 ConditionsComfort  
Time TempWeatherWind HumidityBarometerVisibility
1:50 AM
Sat, Mar 28
37 °FPartly cloudy.6 mph93%29.86 "HgN/A
1:20 AM37 °FOvercast.5 mph93%29.86 "HgN/A
12:50 AM37 °FOvercast.6 mph93%29.86 "HgN/A
12:20 AM37 °FMostly cloudy.6 mph100%29.83 "HgN/A
11:50 PM
Fri, Mar 27
37 °FMostly cloudy.No wind100%29.83 "HgN/A
11:20 PM39 °FDrizzle. Mostly cloudy.5 mph93%29.83 "HgN/A
10:50 PM39 °FDrizzle. Overcast.6 mph93%29.83 "HgN/A
10:20 PM39 °FPartly cloudy.7 mph93%29.83 "HgN/A
9:50 PM39 °FPassing clouds.8 mph93%29.83 "HgN/A
9:20 PM41 °FLight rain. Passing clouds.7 mph93%29.83 "HgN/A
8:50 PM41 °FLight rain. Passing clouds.6 mph93%29.83 "HgN/A
8:20 PM41 °FLight rain. Passing clouds.6 mph93%29.83 "HgN/A
7:50 PM41 °FLight rain. Passing clouds.6 mph93%29.83 "HgN/A
7:20 PM41 °FLight rain. Passing clouds.3 mph93%29.80 "HgN/A
6:50 PM41 °FLight rain. Passing clouds.3 mph93%29.80 "HgN/A
6:20 PM43 °FMostly cloudy.6 mph87%29.80 "HgN/A
5:50 PM43 °FPartly sunny.7 mph87%29.80 "HgN/A
5:20 PM43 °FPartly sunny.8 mph93%29.77 "HgN/A
4:50 PM43 °FBroken clouds.5 mph93%29.77 "Hg4 mi
4:20 PM43 °FFog.6 mph93%29.77 "Hg3 mi
3:50 PM43 °FFog.6 mph93%29.77 "Hg3 mi
3:20 PM43 °FFog.6 mph100%29.74 "Hg3 mi
2:50 PM43 °FFog.7 mph93%29.74 "Hg3 mi
2:20 PM45 °FFog.5 mph93%29.74 "Hg3 mi
1:50 PM45 °FFog.6 mph93%29.74 "Hg4 mi
1:20 PM43 °FFog.5 mph100%29.74 "Hg3 mi
12:50 PM43 °FFog.5 mph93%29.74 "Hg3 mi
12:20 PM43 °FFog.3 mph93%29.71 "Hg2 mi
11:50 AM41 °FFog.5 mph100%29.71 "Hg2 mi
11:20 AM41 °FFog.5 mph100%29.71 "Hg1 mi
10:50 AM41 °FFog.8 mph93%29.71 "Hg1 mi
10:20 AM41 °FFog.9 mph93%29.71 "Hg4 mi
9:50 AM41 °FLight rain. Low clouds.9 mph93%29.71 "Hg4 mi
9:20 AM41 °FLight rain. Low clouds.9 mph93%29.71 "Hg4 mi
8:50 AM39 °FLight rain. Low clouds.10 mph100%29.71 "Hg3 mi
8:20 AM39 °FLight rain. Low clouds.13 mph100%29.71 "Hg4 mi
7:50 AM39 °FDrizzle. Low clouds.12 mph93%29.71 "Hg5 mi
7:20 AM39 °FDrizzle. Low clouds.12 mph93%29.71 "Hg5 mi
6:50 AM39 °FLight rain. Low clouds.12 mph93%29.71 "Hg4 mi
6:20 AM39 °FLight rain. Low clouds.12 mph93%29.71 "Hg4 mi
5:50 AM39 °FLight rain. Low clouds.10 mph93%29.74 "Hg5 mi
5:20 AM39 °FLight rain. Low clouds.12 mph93%29.74 "Hg4 mi
4:50 AM39 °FLight rain. Low clouds.12 mph93%29.74 "Hg6 mi
4:20 AM39 °FLight rain. Low clouds.10 mph93%29.74 "HgN/A
3:50 AM39 °FLight rain. Low clouds.10 mph93%29.74 "HgN/A
3:20 AM39 °FLight rain. Mostly cloudy.10 mph93%29.74 "HgN/A
Weather by CustomWeather, © 2015

See weather overviewHow to use our weather pages